Find Starlink 37164

NORAD ID: 68324 Int'l Des: 2026-059 Owner: SPXS Country: US Constellation: starlink operational
LEOCIRCULAR

Live Position

Loading 3D Globe...

About Starlink 37164

Description loading...

Upcoming Passes

Passes for default location (London). Set your location on the main map for personalized predictions.

Altitude History

Loading altitude history...

Two-Line Element Set

1 68324U 26059D 26105.91668981 -.01927355 00000-0 -20571-1 0 9997
2 68324 53.1600 176.4781 0001301 70.8176 141.1428 15.66412511 5028
Epoch: Apr 15, 2026 • Age: 13 hours

Current Status

Altitude 379.0 km
Velocity 7.69 km/s
Sub-Earth Point 42.30°N, 155.12°W
Launch Date Mar 22, 2026
Age 24 days
Type internet

Technical Details

Classification Payload
Mass 575.00 kg
Dry Mass 530.00 kg
Total Mass 575.00 kg
Length 0.30 m
Diameter 4.10 m
Span 29.00 m
Shape Box + pan
Manufacturer SPXS
Bus Type Starlink V2MO
Phase Status In Orbit
Owner/State SPXS/US

Most Searched